• In Romania
  • List of Countries
  • For 7 days
  • Water Temperature
  • Satellite Maps
  • Weather Map
  • Weather Widgets
  • user-avatar
    Login

    Hourly Weather Nakhchivan

    Today, 21 August, Monday

    Time Temperature Precipitation Wind Pressure Humidity
    00:00 +28°C° 0 mm 2 mps 687 mmHg 40%
    01:00 +28°C° 0 mm 2 mps 687 mmHg 41%
    02:00 +27°C° 0 mm 2 mps 687 mmHg 41%
    03:00 +27°C° 0 mm 1 mps 686 mmHg 41%
    04:00 +27°C° 0 mm 1 mps 687 mmHg 41%
    05:00 +27°C° 0 mm 1 mps 687 mmHg 42%
    06:00 +27°C° 0 mm 1 mps 687 mmHg 42%
    07:00 +29°C° 0 mm 1 mps 687 mmHg 38%
    08:00 +30°C° 0 mm 1 mps 687 mmHg 34%
    09:00 +32°C° 0 mm 1 mps 688 mmHg 30%
    10:00 +34°C° 0 mm 2 mps 688 mmHg 28%
    11:00 +35°C° 0 mm 2 mps 687 mmHg 25%
    12:00 +37°C° 0 mm 2 mps 687 mmHg 23%
    13:00 +37°C° 0 mm 2 mps 687 mmHg 21%
    14:00 +38°C° 0 mm 3 mps 687 mmHg 19%
    15:00 +39°C° 0 mm 3 mps 686 mmHg 18%
    16:00 +38°C° 0 mm 3 mps 686 mmHg 19%
    17:00 +38°C° 0 mm 3 mps 686 mmHg 20%
    18:00 +37°C° 0 mm 4 mps 686 mmHg 21%
    19:00 +35°C° 0 mm 3 mps 686 mmHg 26%
    20:00 +34°C° 0 mm 3 mps 686 mmHg 31%
    21:00 +31°C° 0 mm 2 mps 686 mmHg 36%
    22:00 +31°C° 0 mm 2 mps 686 mmHg 39%
    23:00 +30°C° 0 mm 2 mps 686 mmHg 41%

    Tomorrow, 22 August, Tuesday

    Time Temperature Precipitation Wind Pressure Humidity
    00:00 +29°C° 0 mm 2 mps 686 mmHg 44%
    01:00 +29°C° 0 mm 2 mps 686 mmHg 44%
    02:00 +28°C° 0 mm 2 mps 686 mmHg 45%
    03:00 +28°C° 0 mm 1 mps 685 mmHg 46%
    04:00 +27°C° 0 mm 1 mps 685 mmHg 45%
    05:00 +27°C° 0 mm 1 mps 686 mmHg 45%
    06:00 +27°C° 0 mm 1 mps 686 mmHg 44%
    07:00 +29°C° 0 mm 1 mps 686 mmHg 39%
    08:00 +31°C° 0 mm 1 mps 686 mmHg 33%
    09:00 +33°C° 0 mm 1 mps 686 mmHg 28%
    10:00 +34°C° 0 mm 1 mps 686 mmHg 25%
    11:00 +36°C° 0 mm 2 mps 686 mmHg 21%
    12:00 +38°C° 0 mm 2 mps 686 mmHg 18%
    13:00 +39°C° 0 mm 2 mps 685 mmHg 16%
    14:00 +39°C° 0 mm 3 mps 685 mmHg 15%
    15:00 +40°C° 0 mm 3 mps 685 mmHg 14%
    16:00 +39°C° 0 mm 3 mps 684 mmHg 15%
    17:00 +40°C° 0 mm 4 mps 684 mmHg 16%
    18:00 +38°C° 0 mm 4 mps 684 mmHg 17%
    19:00 +37°C° 0 mm 3 mps 684 mmHg 21%
    20:00 +35°C° 0 mm 3 mps 684 mmHg 24%
    21:00 +33°C° 0 mm 3 mps 684 mmHg 28%
    22:00 +31°C° 0 mm 2 mps 684 mmHg 30%
    23:00 +31°C° 0 mm 2 mps 684 mmHg 32%

    Day after tomorrow, 23 August, Wednesday

    Time Temperature Precipitation Wind Pressure Humidity
    00:00 +30°C° 0 mm 2 mps 684 mmHg 34%
    01:00 +29°C° 0 mm 2 mps 684 mmHg 35%
    02:00 +29°C° 0 mm 2 mps 684 mmHg 36%
    03:00 +28°C° 0 mm 1 mps 684 mmHg 37%
    04:00 +28°C° 0 mm 1 mps 685 mmHg 37%
    05:00 +28°C° 0 mm 1 mps 685 mmHg 37%
    06:00 +28°C° 0 mm 1 mps 685 mmHg 37%
    07:00 +30°C° 0 mm 1 mps 685 mmHg 33%
    08:00 +32°C° 0 mm 1 mps 686 mmHg 29%
    09:00 +33°C° 0 mm 1 mps 686 mmHg 24%
    10:00 +36°C° 0 mm 2 mps 686 mmHg 22%
    11:00 +37°C° 0 mm 3 mps 686 mmHg 19%
    12:00 +39°C° 0 mm 3 mps 686 mmHg 16%
    13:00 +41°C° 0 mm 4 mps 686 mmHg 15%
    14:00 +41°C° 0 mm 4 mps 685 mmHg 14%
    15:00 +42°C° 0 mm 4 mps 685 mmHg 13%
    16:00 +41°C° 0 mm 4 mps 685 mmHg 15%
    17:00 +40°C° 0 mm 4 mps 685 mmHg 17%
    18:00 +39°C° 0 mm 5 mps 685 mmHg 19%
    19:00 +37°C° 0 mm 4 mps 685 mmHg 22%
    20:00 +35°C° 0 mm 4 mps 686 mmHg 25%
    21:00 +33°C° 0 mm 3 mps 686 mmHg 29%
    22:00 +31°C° 0 mm 3 mps 687 mmHg 30%
    23:00 +30°C° 0 mm 3 mps 687 mmHg 32%

    24 August, Thursday

    Time Temperature Precipitation Wind Pressure Humidity
    00:00 +30°C° 0 mm 2 mps 687 mmHg 34%
    01:00 +29°C° 0 mm 2 mps 687 mmHg 35%
    02:00 +28°C° 0 mm 2 mps 687 mmHg 37%
    03:00 +28°C° 0 mm 2 mps 687 mmHg 38%
    04:00 +27°C° 0 mm 2 mps 687 mmHg 38%
    05:00 +27°C° 0 mm 2 mps 688 mmHg 39%
    06:00 +27°C° 0 mm 2 mps 688 mmHg 39%
    07:00 +29°C° 0 mm 2 mps 688 mmHg 35%
    08:00 +30°C° 0 mm 2 mps 688 mmHg 31%
    09:00 +32°C° 0 mm 2 mps 689 mmHg 27%
    10:00 +34°C° 0 mm 2 mps 688 mmHg 24%
    11:00 +36°C° 0 mm 3 mps 688 mmHg 21%
    12:00 +37°C° 0 mm 3 mps 688 mmHg 19%
    13:00 +38°C° 0 mm 4 mps 688 mmHg 18%
    14:00 +40°C° 0 mm 4 mps 688 mmHg 16%
    15:00 +40°C° 0 mm 5 mps 688 mmHg 15%
    16:00 +40°C° 0 mm 5 mps 687 mmHg 17%
    17:00 +39°C° 0 mm 5 mps 687 mmHg 19%
    18:00 +38°C° 0 mm 6 mps 687 mmHg 21%
    19:00 +35°C° 0 mm 5 mps 688 mmHg 24%
    20:00 +34°C° 0 mm 4 mps 688 mmHg 27%
    21:00 +31°C° 0 mm 3 mps 688 mmHg 30%
    22:00 +30°C° 0 mm 3 mps 688 mmHg 31%
    23:00 +29°C° 0 mm 2 mps 689 mmHg 31%

    25 August, Friday

    Time Temperature Precipitation Wind Pressure Humidity
    00:00 +29°C° 0 mm 2 mps 689 mmHg 32%
    01:00 +28°C° 0 mm 2 mps 689 mmHg 32%
    02:00 +28°C° 0 mm 2 mps 689 mmHg 32%
    03:00 +27°C° 0 mm 2 mps 689 mmHg 33%
    04:00 +27°C° 0 mm 2 mps 689 mmHg 33%
    05:00 +27°C° 0 mm 2 mps 689 mmHg 33%
    06:00 +26°C° 0 mm 2 mps 689 mmHg 33%
    07:00 +28°C° 0 mm 2 mps 690 mmHg 29%
    08:00 +30°C° 0 mm 2 mps 690 mmHg 25%
    09:00 +32°C° 0 mm 2 mps 690 mmHg 21%
    10:00 +34°C° 0 mm 2 mps 690 mmHg 19%
    11:00 +35°C° 0 mm 2 mps 689 mmHg 17%
    12:00 +37°C° 0 mm 3 mps 689 mmHg 15%
    13:00 +37°C° 0 mm 3 mps 689 mmHg 14%
    14:00 +38°C° 0 mm 3 mps 689 mmHg 13%
    15:00 +40°C° 0 mm 4 mps 688 mmHg 12%
    16:00 +38°C° 0 mm 4 mps 688 mmHg 13%
    17:00 +37°C° 0 mm 4 mps 688 mmHg 14%
    18:00 +37°C° 0 mm 5 mps 688 mmHg 15%
    19:00 +35°C° 0 mm 4 mps 688 mmHg 17%
    20:00 +33°C° 0 mm 3 mps 688 mmHg 19%
    21:00 +30°C° 0 mm 3 mps 689 mmHg 21%
    22:00 +30°C° 0 mm 3 mps 689 mmHg 22%
    23:00 +29°C° 0 mm 2 mps 689 mmHg 23%

    26 August, Saturday

    Time Temperature Precipitation Wind Pressure Humidity
    00:00 +28°C° 0 mm 2 mps 689 mmHg 24%
    01:00 +27°C° 0 mm 2 mps 689 mmHg 25%
    02:00 +27°C° 0 mm 2 mps 689 mmHg 26%
    03:00 +26°C° 0 mm 2 mps 689 mmHg 27%
    04:00 +26°C° 0 mm 2 mps 689 mmHg 28%
    05:00 +26°C° 0 mm 2 mps 689 mmHg 28%
    06:00 +25°C° 0 mm 2 mps 689 mmHg 28%
    07:00 +27°C° 0 mm 2 mps 689 mmHg 25%
    08:00 +29°C° 0 mm 2 mps 689 mmHg 22%
    09:00 +31°C° 0 mm 2 mps 689 mmHg 18%
    10:00 +32°C° 0 mm 2 mps 689 mmHg 17%
    11:00 +34°C° 0 mm 2 mps 689 mmHg 15%
    12:00 +35°C° 0 mm 3 mps 688 mmHg 14%
    13:00 +36°C° 0 mm 3 mps 688 mmHg 13%
    14:00 +37°C° 0 mm 4 mps 688 mmHg 13%
    15:00 +38°C° 0 mm 4 mps 687 mmHg 12%
    16:00 +37°C° 0 mm 4 mps 687 mmHg 14%
    17:00 +36°C° 0 mm 5 mps 687 mmHg 15%
    18:00 +35°C° 0 mm 5 mps 687 mmHg 16%
    19:00 +33°C° 0 mm 4 mps 687 mmHg 18%
    20:00 +32°C° 0 mm 4 mps 687 mmHg 21%
    21:00 +29°C° 0 mm 3 mps 688 mmHg 23%
    22:00 +28°C° 0 mm 3 mps 688 mmHg 24%
    23:00 +28°C° 0 mm 3 mps 688 mmHg 26%
    Show more